| time (UTC) | temp C | wind direction | speed KPH | gust KPH | rain 1hr cm | rain 24hr cm | rain mn cm | humidity % | barometer mb |
| 20260508053220 | 32 | 252 | 17.7 | 24.1 | 0.00 | 0.00 | 0.00 | 16 | 1014.6 |
| 20260508052717 | 31 | 303 | 14.5 | 17.7 | 0.00 | 0.00 | 0.00 | 16 | 1014.3 |
| 20260508052213 | 31 | 266 | 12.9 | 20.9 | 0.00 | 0.00 | 0.00 | 16 | 1014.6 |
| 20260508051710 | 32 | 179 | 12.9 | 32.2 | 0.00 | 0.00 | 0.00 | 19 | 1014.6 |
| 20260508051205 | 31 | 269 | 11.3 | 27.4 | 0.00 | 0.00 | 0.00 | 16 | 1014.6 |
| 20260508050702 | 31 | 230 | 29.0 | 37.0 | 0.00 | 0.00 | 0.00 | 17 | 1014.5 |
| 20260508050200 | 31 | 226 | 38.6 | 46.7 | 0.00 | 0.00 | 0.00 | 17 | 1014.3 |
| 20260508045700 | 31 | 249 | 14.5 | 27.4 | 0.00 | 0.00 | 0.00 | 16 | 1014.6 |
| 20260508045158 | 32 | 276 | 8.0 | 35.4 | 0.00 | 0.00 | 0.00 | 16 | 1014.5 |
| 20260508044655 | 31 | 251 | 22.5 | 25.7 | 0.00 | 0.00 | 0.00 | 17 | 1014.5 |
| 20260508044151 | 32 | 273 | 19.3 | 40.2 | 0.00 | 0.00 | 0.00 | 17 | 1014.4 |
| 20260508043647 | 31 | 273 | 14.5 | 29.0 | 0.00 | 0.00 | 0.00 | 17 | 1014.2 |
| 20260508043146 | 31 | 256 | 20.9 | 32.2 | 0.00 | 0.00 | 0.00 | 17 | 1014.5 |
| 20260508042642 | 31 | 236 | 35.4 | 37.0 | 0.00 | 0.00 | 0.00 | 16 | 1014.3 |
| 20260508042139 | 31 | 247 | 27.4 | 30.6 | 0.00 | 0.00 | 0.00 | 17 | 1014.5 |
| 20260508041635 | 31 | 244 | 20.9 | 40.2 | 0.00 | 0.00 | 0.00 | 18 | 1014.3 |
| 20260508041132 | 31 | 292 | 11.3 | 29.0 | 0.00 | 0.00 | 0.00 | 19 | 1014.1 |
| 20260508040629 | 31 | 265 | 22.5 | 30.6 | 0.00 | 0.00 | 0.00 | 17 | 1014.0 |
| 20260508040127 | 31 | 297 | 17.7 | 32.2 | 0.00 | 0.00 | 0.00 | 18 | 1013.9 |
| 20260508035624 | 31 | 287 | 12.9 | 37.0 | 0.00 | 0.00 | 0.00 | 19 | 1013.7 |
| 20260508035121 | 31 | 275 | 12.9 | 32.2 | 0.00 | 0.00 | 0.00 | 19 | 1013.7 |
| 20260508034618 | 31 | 301 | 25.7 | 30.6 | 0.00 | 0.00 | 0.00 | 20 | 1013.7 |
| 20260508034115 | 31 | 253 | 19.3 | 35.4 | 0.00 | 0.00 | 0.00 | 21 | 1013.6 |
| 20260508033612 | 31 | 298 | 19.3 | 32.2 | 0.00 | 0.00 | 0.00 | 22 | 1013.6 |
| 20260508033110 | 31 | 240 | 22.5 | 32.2 | 0.00 | 0.00 | 0.00 | 23 | 1013.3 |
| 20260508032606 | 31 | 314 | 33.8 | 43.5 | 0.00 | 0.00 | 0.00 | 24 | 1013.3 |
| 20260508032104 | 31 | 287 | 17.7 | 35.4 | 0.00 | 0.00 | 0.00 | 26 | 1013.1 |
| 20260508031601 | 31 | 299 | 24.1 | 41.8 | 0.00 | 0.00 | 0.00 | 26 | 1013.2 |
| 20260508031057 | 31 | 288 | 11.3 | 30.6 | 0.00 | 0.00 | 0.00 | 25 | 1013.2 |
| 20260508030553 | 31 | 283 | 17.7 | 35.4 | 0.00 | 0.00 | 0.00 | 26 | 1013.1 |
| 20260508030052 | 31 | 295 | 19.3 | 32.2 | 0.00 | 0.00 | 0.00 | 26 | 1012.9 |
| 20260508025547 | 31 | 293 | 30.6 | 41.8 | 0.00 | 0.00 | 0.00 | 27 | 1012.9 |
| 20260508025045 | 31 | 277 | 14.5 | 33.8 | 0.00 | 0.00 | 0.00 | 27 | 1013.0 |
| 20260508024540 | 31 | 279 | 14.5 | 37.0 | 0.00 | 0.00 | 0.00 | 26 | 1012.8 |
| 20260508024038 | 31 | 305 | 22.5 | 41.8 | 0.00 | 0.00 | 0.00 | 29 | 1012.8 |
| 20260508023534 | 31 | 290 | 19.3 | 35.4 | 0.00 | 0.00 | 0.00 | 28 | 1012.8 |
| 20260508023032 | 31 | 314 | 27.4 | 37.0 | 0.00 | 0.00 | 0.00 | 28 | 1012.9 |
| 20260508022527 | 31 | 266 | 11.3 | 29.0 | 0.00 | 0.00 | 0.00 | 26 | 1012.8 |
| 20260508022025 | 31 | 309 | 24.1 | 37.0 | 0.00 | 0.00 | 0.00 | 28 | 1012.5 |
| 20260508021520 | 31 | 296 | 24.1 | 40.2 | 0.00 | 0.00 | 0.00 | 29 | 1012.6 |
| 20260508021016 | 31 | 310 | 27.4 | 40.2 | 0.00 | 0.00 | 0.00 | 27 | 1012.6 |
| 20260508020514 | 32 | 284 | 16.1 | 37.0 | 0.00 | 0.00 | 0.00 | 27 | 1012.8 |
| 20260508020012 | 32 | 295 | 12.9 | 37.0 | 0.00 | 0.00 | 0.00 | 27 | 1012.5 |
| 20260508015509 | 31 | 293 | 19.3 | 30.6 | 0.00 | 0.00 | 0.00 | 28 | 1012.6 |
| 20260508015006 | 32 | 305 | 30.6 | 41.8 | 0.00 | 0.00 | 0.00 | 29 | 1012.7 |
| 20260508014502 | 32 | 285 | 22.5 | 27.4 | 0.00 | 0.00 | 0.00 | 29 | 1012.6 |
| 20260508013958 | 32 | 309 | 17.7 | 27.4 | 0.00 | 0.00 | 0.00 | 27 | 1012.5 |
| 20260508013454 | 32 | 282 | 9.7 | 37.0 | 0.00 | 0.00 | 0.00 | 27 | 1012.7 |
| 20260508012952 | 32 | 299 | 16.1 | 29.0 | 0.00 | 0.00 | 0.00 | 27 | 1012.8 |
| 20260508012449 | 32 | 293 | 9.7 | 29.0 | 0.00 | 0.00 | 0.00 | 24 | 1012.7 |
| 20260508011946 | 33 | 264 | 16.1 | 32.2 | 0.00 | 0.00 | 0.00 | 24 | 1012.7 |
| 20260508011444 | 33 | 257 | 22.5 | 30.6 | 0.00 | 0.00 | 0.00 | 23 | 1012.6 |
| 20260508010941 | 33 | 263 | 16.1 | 30.6 | 0.00 | 0.00 | 0.00 | 23 | 1012.9 |
| 20260508010438 | 33 | 256 | 19.3 | 30.6 | 0.00 | 0.00 | 0.00 | 23 | 1012.8 |
| 20260508005935 | 34 | 262 | 17.7 | 30.6 | 0.00 | 0.00 | 0.00 | 22 | 1012.9 |
| 20260508005432 | 34 | 259 | 24.1 | 32.2 | 0.00 | 0.00 | 0.00 | 22 | 1012.8 |
| 20260508004928 | 34 | 255 | 19.3 | 37.0 | 0.00 | 0.00 | 0.00 | 21 | 1012.8 |
| 20260508004425 | 35 | 258 | 19.3 | 27.4 | 0.00 | 0.00 | 0.00 | 21 | 1012.8 |
| 20260508003921 | 35 | 245 | 25.7 | 32.2 | 0.00 | 0.00 | 0.00 | 20 | 1012.9 |
| 20260508003418 | 35 | 278 | 6.4 | 32.2 | 0.00 | 0.00 | 0.00 | 19 | 1013.0 |
| 20260508002916 | 35 | 254 | 12.9 | 27.4 | 0.00 | 0.00 | 0.00 | 20 | 1013.0 |
| 20260508002412 | 35 | 258 | 20.9 | 32.2 | 0.00 | 0.00 | 0.00 | 20 | 1012.9 |
| 20260508001908 | 36 | 257 | 20.9 | 27.4 | 0.00 | 0.00 | 0.00 | 19 | 1012.8 |
| 20260508001404 | 35 | 247 | 17.7 | 24.1 | 0.00 | 0.00 | 0.00 | 18 | 1012.8 |
| 20260508000901 | 36 | 241 | 6.4 | 24.1 | 0.00 | 0.00 | 0.00 | 19 | 1013.0 |
| 20260508000357 | 36 | 269 | 16.1 | 27.4 | 0.00 | 0.00 | 0.00 | 18 | 1013.0 |
| 20260507235854 | 36 | 340 | 12.9 | 33.8 | 0.00 | 0.00 | 0.00 | 18 | 1012.9 |
| 20260507235352 | 36 | 293 | 9.7 | 22.5 | 0.00 | 0.00 | 0.00 | 19 | 1012.9 |
| 20260507234849 | 36 | 257 | 12.9 | 25.7 | 0.00 | 0.00 | 0.00 | 18 | 1012.8 |
| 20260507234345 | 36 | 238 | 27.4 | 30.6 | 0.00 | 0.00 | 0.00 | 17 | 1012.8 |
| 20260507233841 | 36 | 310 | 16.1 | 24.1 | 0.00 | 0.00 | 0.00 | 18 | 1013.1 |
| 20260507233339 | 36 | 236 | 14.5 | 30.6 | 0.00 | 0.00 | 0.00 | 19 | 1012.8 |
| 20260507232837 | 36 | 229 | 12.9 | 25.7 | 0.00 | 0.00 | 0.00 | 18 | 1012.7 |
| 20260507232333 | 36 | 247 | 17.7 | 32.2 | 0.00 | 0.00 | 0.00 | 18 | 1012.9 |
| 20260507231831 | 36 | 224 | 8.0 | 25.7 | 0.00 | 0.00 | 0.00 | 19 | 1013.0 |
| 20260507231327 | 37 | 253 | 12.9 | 16.1 | 0.00 | 0.00 | 0.00 | 17 | 1013.1 |
| 20260507230823 | 36 | 248 | 8.0 | 25.7 | 0.00 | 0.00 | 0.00 | 17 | 1013.0 |
| 20260507230321 | 36 | 243 | 20.9 | 27.4 | 0.00 | 0.00 | 0.00 | 17 | 1012.9 |
| 20260507225821 | 37 | 298 | 4.8 | 14.5 | 0.00 | 0.00 | 0.00 | 17 | 1013.1 |
| 20260507225317 | 37 | 314 | 6.4 | 9.7 | 0.00 | 0.00 | 0.00 | 16 | 1013.0 |
| 20260507224813 | 37 | 264 | 4.8 | 9.7 | 0.00 | 0.00 | 0.00 | 15 | 1013.1 |
| 20260507224310 | 36 | 101 | 4.8 | 8.0 | 0.00 | 0.00 | 0.00 | 15 | 1013.4 |
| 20260507223806 | 37 | 28 | 6.4 | 9.7 | 0.00 | 0.00 | 0.00 | 15 | 1013.2 |
| 20260507223302 | 38 | 62 | 8.0 | 9.7 | 0.00 | 0.00 | 0.00 | 15 | 1013.3 |
| 20260507222800 | 37 | 94 | 3.2 | 8.0 | 0.00 | 0.00 | 0.00 | 14 | 1013.3 |
| 20260507222256 | 37 | 227 | 0.0 | 16.1 | 0.00 | 0.00 | 0.00 | 13 | 1013.4 |
| 20260507221753 | 38 | 111 | 4.8 | 8.0 | 0.00 | 0.00 | 0.00 | 13 | 1013.4 |
| 20260507221249 | 37 | 71 | 8.0 | 9.7 | 0.00 | 0.00 | 0.00 | 13 | 1013.7 |
| 20260507220746 | 38 | 231 | 9.7 | 14.5 | 0.00 | 0.00 | 0.00 | 13 | 1013.5 |
| 20260507220244 | 38 | 227 | 6.4 | 9.7 | 0.00 | 0.00 | 0.00 | 13 | 1013.7 |
| 20260507215740 | 38 | 126 | 3.2 | 8.0 | 0.00 | 0.00 | 0.00 | 12 | 1014.1 |
| 20260507215232 | 38 | 202 | 3.2 | 4.8 | 0.00 | 0.00 | 0.00 | 12 | 1014.0 |
| 20260507214729 | 37 | 192 | 6.4 | 19.3 | 0.00 | 0.00 | 0.00 | 13 | 1014.1 |
| 20260507214226 | 38 | 93 | 8.0 | 9.7 | 0.00 | 0.00 | 0.00 | 13 | 1014.1 |
| 20260507213721 | 37 | 242 | 8.0 | 9.7 | 0.00 | 0.00 | 0.00 | 13 | 1014.3 |
| 20260507213219 | 36 | 7 | 3.2 | 8.0 | 0.00 | 0.00 | 0.00 | 14 | 1014.3 |
| 20260507212715 | 37 | 208 | 3.2 | 9.7 | 0.00 | 0.00 | 0.00 | 13 | 1014.5 |
| 20260507212212 | 36 | 330 | 3.2 | 8.0 | 0.00 | 0.00 | 0.00 | 13 | 1014.5 |
| 20260507211708 | 37 | 129 | 4.8 | 8.0 | 0.00 | 0.00 | 0.00 | 13 | 1014.4 |
| 20260507211204 | 37 | 136 | 4.8 | 8.0 | 0.00 | 0.00 | 0.00 | 13 | 1014.6 |
| 20260507210702 | 38 | 166 | 3.2 | 8.0 | 0.00 | 0.00 | 0.00 | 13 | 1014.8 |
| 20260507210158 | 37 | 167 | 3.2 | 16.1 | 0.00 | 0.00 | 0.00 | 13 | 1014.7 |
| 20260507205654 | 36 | 260 | 1.6 | 9.7 | 0.00 | 0.00 | 0.00 | 14 | 1014.6 |
| 20260507205151 | 37 | 248 | 3.2 | 6.4 | 0.00 | 0.00 | 0.00 | 14 | 1014.8 |
| 20260507204647 | 36 | 171 | 1.6 | 8.0 | 0.00 | 0.00 | 0.00 | 14 | 1015.0 |
| 20260507204145 | 36 | 311 | 1.6 | 8.0 | 0.00 | 0.00 | 0.00 | 14 | 1015.0 |
| 20260507203643 | 37 | 41 | 9.7 | 14.5 | 0.00 | 0.00 | 0.00 | 14 | 1015.0 |
| 20260507203140 | 36 | 68 | 0.0 | 17.7 | 0.00 | 0.00 | 0.00 | 14 | 1015.1 |
| 20260507202636 | 36 | 151 | 3.2 | 6.4 | 0.00 | 0.00 | 0.00 | 14 | 1015.2 |
| 20260507202132 | 36 | 156 | 1.6 | 6.4 | 0.00 | 0.00 | 0.00 | 14 | 1015.2 |
| 20260507201627 | 35 | 163 | 6.4 | 11.3 | 0.00 | 0.00 | 0.00 | 15 | 1015.2 |
| 20260507201125 | 36 | 118 | 4.8 | 12.9 | 0.00 | 0.00 | 0.00 | 14 | 1015.1 |
| 20260507200620 | 36 | 69 | 4.8 | 6.4 | 0.00 | 0.00 | 0.00 | 15 | 1015.3 |
| 20260507200117 | 35 | 18 | 4.8 | 6.4 | 0.00 | 0.00 | 0.00 | 15 | 1015.4 |
| 20260507195614 | 36 | 61 | 4.8 | 11.3 | 0.00 | 0.00 | 0.00 | 15 | 1015.6 |
| 20260507195111 | 36 | 75 | 8.0 | 14.5 | 0.00 | 0.00 | 0.00 | 15 | 1015.6 |
| 20260507194608 | 36 | 102 | 4.8 | 9.7 | 0.00 | 0.00 | 0.00 | 15 | 1015.7 |
| 20260507194103 | 36 | 230 | 1.6 | 4.8 | 0.00 | 0.00 | 0.00 | 14 | 1015.6 |
| 20260507193601 | 35 | 206 | 1.6 | 8.0 | 0.00 | 0.00 | 0.00 | 15 | 1015.9 |
| 20260507193057 | 35 | 83 | 6.4 | 6.4 | 0.00 | 0.00 | 0.00 | 15 | 1016.1 |
| 20260507192553 | 36 | 109 | 9.7 | 14.5 | 0.00 | 0.00 | 0.00 | 15 | 1016.1 |
| 20260507192051 | 35 | 208 | 3.2 | 8.0 | 0.00 | 0.00 | 0.00 | 15 | 1016.1 |
| 20260507191546 | 36 | 118 | 4.8 | 12.9 | 0.00 | 0.00 | 0.00 | 15 | 1016.1 |
| 20260507191043 | 36 | 93 | 3.2 | 6.4 | 0.00 | 0.00 | 0.00 | 15 | 1016.2 |
| 20260507190540 | 35 | 209 | 0.0 | 8.0 | 0.00 | 0.00 | 0.00 | 16 | 1016.3 |
| 20260507190039 | 35 | 314 | 4.8 | 4.8 | 0.00 | 0.00 | 0.00 | 15 | 1016.5 |
| 20260507185537 | 35 | 132 | 4.8 | 4.8 | 0.00 | 0.00 | 0.00 | 15 | 1016.6 |
| 20260507185033 | 35 | 102 | 8.0 | 9.7 | 0.00 | 0.00 | 0.00 | 16 | 1016.3 |
| 20260507184532 | 34 | 103 | 8.0 | 11.3 | 0.00 | 0.00 | 0.00 | 17 | 1016.7 |
| 20260507184029 | 35 | 75 | 6.4 | 11.3 | 0.00 | 0.00 | 0.00 | 16 | 1016.7 |
| 20260507183525 | 35 | 101 | 4.8 | 8.0 | 0.00 | 0.00 | 0.00 | 17 | 1016.8 |
| 20260507183022 | 34 | 111 | 3.2 | 8.0 | 0.00 | 0.00 | 0.00 | 18 | 1016.7 |
| 20260507182518 | 33 | 152 | 3.2 | 11.3 | 0.00 | 0.00 | 0.00 | 18 | 1016.9 |
| 20260507182014 | 35 | 97 | 4.8 | 6.4 | 0.00 | 0.00 | 0.00 | 18 | 1016.9 |
| 20260507181512 | 33 | 56 | 1.6 | 6.4 | 0.00 | 0.00 | 0.00 | 20 | 1017.1 |
| 20260507181008 | 33 | 164 | 1.6 | 4.8 | 0.00 | 0.00 | 0.00 | 20 | 1017.0 |
| 20260507180504 | 33 | 95 | 4.8 | 6.4 | 0.00 | 0.00 | 0.00 | 19 | 1017.0 |
| 20260507180000 | 33 | 100 | 11.3 | 16.1 | 0.00 | 0.00 | 0.00 | 20 | 1017.2 |
| 20260507175457 | 33 | 109 | 8.0 | 8.0 | 0.00 | 0.00 | 0.00 | 20 | 1017.2 |
| 20260507174955 | 32 | 187 | 3.2 | 8.0 | 0.00 | 0.00 | 0.00 | 20 | 1017.0 |
| 20260507174452 | 33 | 116 | 3.2 | 4.8 | 0.00 | 0.00 | 0.00 | 20 | 1017.2 |
| 20260507173949 | 32 | 134 | 1.6 | 4.8 | 0.00 | 0.00 | 0.00 | 21 | 1017.4 |
| 20260507173446 | 32 | 105 | 3.2 | 3.2 | 0.00 | 0.00 | 0.00 | 21 | 1017.3 |
| 20260507172943 | 32 | 107 | 4.8 | 8.0 | 0.00 | 0.00 | 0.00 | 21 | 1017.2 |
| 20260507172439 | 32 | 200 | 3.2 | 4.8 | 0.00 | 0.00 | 0.00 | 21 | 1017.0 |
| 20260507171936 | 32 | 88 | 3.2 | 4.8 | 0.00 | 0.00 | 0.00 | 21 | 1017.3 |
| 20260507171432 | 32 | 354 | 1.6 | 4.8 | 0.00 | 0.00 | 0.00 | 22 | 1017.3 |
| 20260507170930 | 31 | 74 | 3.2 | 3.2 | 0.00 | 0.00 | 0.00 | 21 | 1017.3 |
| 20260507170426 | 31 | 84 | 1.6 | 4.8 | 0.00 | 0.00 | 0.00 | 21 | 1017.4 |
| 20260507165922 | 31 | 259 | 1.6 | 4.8 | 0.00 | 0.00 | 0.00 | 22 | 1017.4 |
| 20260507165418 | 31 | 48 | 1.6 | 6.4 | 0.00 | 0.00 | 0.00 | 23 | 1017.6 |
| 20260507164914 | 31 | 102 | 4.8 | 4.8 | 0.00 | 0.00 | 0.00 | 23 | 1017.5 |
| 20260507164412 | 30 | 251 | 1.6 | 4.8 | 0.00 | 0.00 | 0.00 | 23 | 1017.5 |
| 20260507163909 | 31 | 108 | 3.2 | 4.8 | 0.00 | 0.00 | 0.00 | 22 | 1017.4 |
| 20260507163407 | 30 | 55 | 3.2 | 4.8 | 0.00 | 0.00 | 0.00 | 24 | 1017.5 |
| 20260507162903 | 31 | 76 | 1.6 | 4.8 | 0.00 | 0.00 | 0.00 | 25 | 1017.4 |
| 20260507162358 | 30 | 164 | 0.0 | 3.2 | 0.00 | 0.00 | 0.00 | 25 | 1017.7 |
| 20260507161856 | 30 | 77 | 3.2 | 4.8 | 0.00 | 0.00 | 0.00 | 26 | 1017.8 |
| 20260507161352 | 30 | 44 | 0.0 | 3.2 | 0.00 | 0.00 | 0.00 | 27 | 1017.7 |
| 20260507160849 | 30 | 37 | 1.6 | 4.8 | 0.00 | 0.00 | 0.00 | 27 | 1017.4 |
| 20260507160344 | 28 | 63 | 0.0 | 6.4 | 0.00 | 0.00 | 0.00 | 28 | 1017.6 |
| 20260507155841 | 28 | 67 | 3.2 | 6.4 | 0.00 | 0.00 | 0.00 | 30 | 1017.6 |
| 20260507155336 | 28 | 93 | 3.2 | 4.8 | 0.00 | 0.00 | 0.00 | 30 | 1017.5 |
| 20260507154833 | 28 | 68 | 3.2 | 4.8 | 0.00 | 0.00 | 0.00 | 30 | 1017.7 |
| 20260507154331 | 28 | 61 | 3.2 | 4.8 | 0.00 | 0.00 | 0.00 | 30 | 1017.7 |
| 20260507153828 | 28 | 59 | 3.2 | 6.4 | 0.00 | 0.00 | 0.00 | 30 | 1017.6 |
| 20260507153324 | 27 | 86 | 4.8 | 6.4 | 0.00 | 0.00 | 0.00 | 30 | 1017.7 |
| 20260507152820 | 27 | 74 | 3.2 | 6.4 | 0.00 | 0.00 | 0.00 | 31 | 1017.6 |
| 20260507152317 | 27 | 101 | 4.8 | 6.4 | 0.00 | 0.00 | 0.00 | 30 | 1017.7 |
| 20260507151813 | 27 | 85 | 3.2 | 6.4 | 0.00 | 0.00 | 0.00 | 31 | 1017.7 |
| 20260507151309 | 27 | 101 | 3.2 | 4.8 | 0.00 | 0.00 | 0.00 | 31 | 1017.7 |
| 20260507150806 | 27 | 46 | 3.2 | 3.2 | 0.00 | 0.00 | 0.00 | 31 | 1018.0 |
| 20260507150303 | 27 | 87 | 3.2 | 4.8 | 0.00 | 0.00 | 0.00 | 31 | 1017.6 |
| 20260507145759 | 27 | 80 | 3.2 | 4.8 | 0.00 | 0.00 | 0.00 | 31 | 1017.6 |
| 20260507145255 | 26 | 66 | 3.2 | 4.8 | 0.00 | 0.00 | 0.00 | 32 | 1017.5 |
| 20260507144753 | 26 | 82 | 3.2 | 4.8 | 0.00 | 0.00 | 0.00 | 32 | 1017.6 |
| 20260507144250 | 26 | 61 | 3.2 | 4.8 | 0.00 | 0.00 | 0.00 | 32 | 1017.7 |
| 20260507143746 | 26 | 59 | 0.0 | 3.2 | 0.00 | 0.00 | 0.00 | 32 | 1017.6 |
| 20260507143244 | 26 | 73 | 0.0 | 3.2 | 0.00 | 0.00 | 0.00 | 32 | 1017.6 |
| 20260507142739 | 25 | 53 | 0.0 | 1.6 | 0.00 | 0.00 | 0.00 | 34 | 1017.5 |
| 20260507142236 | 24 | 304 | 0.0 | 0.0 | 0.00 | 0.00 | 0.00 | 36 | 1017.5 |
| 20260507141733 | 24 | 132 | 0.0 | 0.0 | 0.00 | 0.00 | 0.00 | 34 | 1017.6 |
| 20260507141230 | 24 | 286 | 0.0 | 1.6 | 0.00 | 0.00 | 0.00 | 34 | 1017.4 |
| 20260507140726 | 25 | 75 | 0.0 | 3.2 | 0.00 | 0.00 | 0.00 | 33 | 1017.4 |
| 20260507140224 | 22 | 326 | 0.0 | 0.0 | 0.00 | 0.00 | 0.00 | 36 | 1017.4 |
| 20260507135720 | 22 | 279 | 0.0 | 1.6 | 0.00 | 0.00 | 0.00 | 36 | 1017.2 |
| 20260507135218 | 21 | 246 | 0.0 | 3.2 | 0.00 | 0.00 | 0.00 | 36 | 1017.2 |
| 20260507134714 | 20 | 252 | 0.0 | 3.2 | 0.00 | 0.00 | 0.00 | 37 | 1017.2 |
| 20260507134210 | 20 | 258 | 0.0 | 3.2 | 0.00 | 0.00 | 0.00 | 39 | 1017.3 |
| 20260507133706 | 19 | 277 | 0.0 | 3.2 | 0.00 | 0.00 | 0.00 | 40 | 1017.3 |
| 20260507133203 | 18 | 279 | 0.0 | 3.2 | 0.00 | 0.00 | 0.00 | 41 | 1017.4 |
| 20260507132701 | 18 | 113 | 0.0 | 3.2 | 0.00 | 0.00 | 0.00 | 43 | 1017.3 |
| 20260507132157 | 17 | 229 | 0.0 | 1.6 | 0.00 | 0.00 | 0.00 | 44 | 1017.2 |
| 20260507131654 | 17 | 179 | 1.6 | 3.2 | 0.00 | 0.00 | 0.00 | 47 | 1017.1 |
| 20260507131151 | 16 | 234 | 3.2 | 3.2 | 0.00 | 0.00 | 0.00 | 45 | 1017.1 |
| 20260507130648 | 17 | 228 | 1.6 | 4.8 | 0.00 | 0.00 | 0.00 | 44 | 1017.2 |
| 20260507130146 | 17 | 141 | 0.0 | 3.2 | 0.00 | 0.00 | 0.00 | 48 | 1017.0 |
| 20260507125644 | 16 | 160 | 0.0 | 1.6 | 0.00 | 0.00 | 0.00 | 45 | 1017.1 |
| 20260507125142 | 16 | 306 | 0.0 | 3.2 | 0.00 | 0.00 | 0.00 | 47 | 1017.1 |
| 20260507124637 | 16 | 99 | 1.6 | 3.2 | 0.00 | 0.00 | 0.00 | 46 | 1016.9 |
| 20260507124135 | 16 | 286 | 3.2 | 3.2 | 0.00 | 0.00 | 0.00 | 46 | 1016.9 |
| 20260507123633 | 16 | 238 | 1.6 | 3.2 | 0.00 | 0.00 | 0.00 | 46 | 1017.0 |
| 20260507123130 | 16 | 230 | 0.0 | 3.2 | 0.00 | 0.00 | 0.00 | 46 | 1016.8 |
| 20260507122625 | 16 | 259 | 0.0 | 3.2 | 0.00 | 0.00 | 0.00 | 46 | 1016.9 |
| 20260507122121 | 16 | 173 | 1.6 | 3.2 | 0.00 | 0.00 | 0.00 | 45 | 1017.0 |
| 20260507121617 | 16 | 59 | 1.6 | 3.2 | 0.00 | 0.00 | 0.00 | 47 | 1016.9 |
| 20260507121113 | 16 | 296 | 0.0 | 3.2 | 0.00 | 0.00 | 0.00 | 46 | 1016.9 |
| 20260507120609 | 16 | 218 | 0.0 | 1.6 | 0.00 | 0.00 | 0.00 | 46 | 1016.8 |
| 20260507120106 | 17 | 242 | 3.2 | 3.2 | 0.00 | 0.00 | 0.00 | 46 | 1016.8 |
| 20260507115603 | 16 | 227 | 1.6 | 3.2 | 0.00 | 0.00 | 0.00 | 46 | 1016.9 |
| 20260507115059 | 17 | 213 | 3.2 | 4.8 | 0.00 | 0.00 | 0.00 | 45 | 1016.9 |
| 20260507114555 | 17 | 232 | 0.0 | 1.6 | 0.00 | 0.00 | 0.00 | 44 | 1017.0 |
| 20260507114052 | 17 | 236 | 0.0 | 3.2 | 0.00 | 0.00 | 0.00 | 43 | 1016.8 |
| 20260507113549 | 17 | 164 | 0.0 | 3.2 | 0.00 | 0.00 | 0.00 | 43 | 1016.8 |
| 20260507113046 | 17 | 296 | 0.0 | 3.2 | 0.00 | 0.00 | 0.00 | 43 | 1016.9 |
| 20260507112544 | 17 | 228 | 3.2 | 4.8 | 0.00 | 0.00 | 0.00 | 42 | 1016.9 |
| 20260507112040 | 17 | 163 | 3.2 | 4.8 | 0.00 | 0.00 | 0.00 | 42 | 1016.6 |
| 20260507111538 | 17 | 194 | 3.2 | 3.2 | 0.00 | 0.00 | 0.00 | 44 | 1016.7 |
| 20260507111034 | 17 | 162 | 0.0 | 1.6 | 0.00 | 0.00 | 0.00 | 45 | 1016.6 |
| 20260507110531 | 17 | 269 | 0.0 | 3.2 | 0.00 | 0.00 | 0.00 | 44 | 1017.0 |
| 20260507110027 | 17 | 160 | 0.0 | 3.2 | 0.00 | 0.00 | 0.00 | 44 | 1016.8 |
| 20260507105525 | 17 | 238 | 0.0 | 1.6 | 0.00 | 0.00 | 0.00 | 44 | 1016.8 |
| 20260507105020 | 17 | 291 | 0.0 | 3.2 | 0.00 | 0.00 | 0.00 | 44 | 1016.7 |
| 20260507104518 | 17 | 299 | 0.0 | 3.2 | 0.00 | 0.00 | 0.00 | 44 | 1016.7 |
| 20260507104015 | 17 | 208 | 0.0 | 3.2 | 0.00 | 0.00 | 0.00 | 43 | 1016.9 |
| 20260507103505 | 18 | 180 | 1.6 | 3.2 | 0.00 | 0.00 | 0.00 | 43 | 1016.8 |
| 20260507103002 | 18 | 162 | 1.6 | 3.2 | 0.00 | 0.00 | 0.00 | 43 | 1016.9 |
| 20260507102459 | 18 | 141 | 1.6 | 3.2 | 0.00 | 0.00 | 0.00 | 44 | 1016.7 |
| 20260507101954 | 18 | 212 | 1.6 | 3.2 | 0.00 | 0.00 | 0.00 | 44 | 1016.7 |
| 20260507101449 | 17 | 180 | 0.0 | 1.6 | 0.00 | 0.00 | 0.00 | 43 | 1016.8 |
| 20260507100946 | 17 | 189 | 1.6 | 1.6 | 0.00 | 0.00 | 0.00 | 44 | 1016.9 |
| 20260507100443 | 17 | 197 | 0.0 | 3.2 | 0.00 | 0.00 | 0.00 | 45 | 1016.9 |
| 20260507095942 | 18 | 140 | 1.6 | 1.6 | 0.00 | 0.00 | 0.00 | 44 | 1016.9 |
| 20260507095439 | 17 | 146 | 0.0 | 0.0 | 0.00 | 0.00 | 0.00 | 46 | 1016.8 |
| 20260507094936 | 18 | 211 | 0.0 | 3.2 | 0.00 | 0.00 | 0.00 | 44 | 1016.9 |
| 20260507094432 | 18 | 14 | 0.0 | 1.6 | 0.00 | 0.00 | 0.00 | 44 | 1016.9 |
| 20260507093929 | 18 | 206 | 1.6 | 3.2 | 0.00 | 0.00 | 0.00 | 44 | 1017.1 |
| 20260507093427 | 18 | 256 | 3.2 | 3.2 | 0.00 | 0.00 | 0.00 | 45 | 1016.8 |
| 20260507092925 | 18 | 212 | 0.0 | 1.6 | 0.00 | 0.00 | 0.00 | 44 | 1017.2 |
| 20260507092420 | 18 | 170 | 3.2 | 3.2 | 0.00 | 0.00 | 0.00 | 44 | 1017.2 |
| 20260507091917 | 18 | 248 | 1.6 | 3.2 | 0.00 | 0.00 | 0.00 | 45 | 1017.4 |
| 20260507091414 | 18 | 243 | 1.6 | 3.2 | 0.00 | 0.00 | 0.00 | 44 | 1017.2 |
| 20260507090910 | 18 | 239 | 0.0 | 1.6 | 0.00 | 0.00 | 0.00 | 43 | 1017.5 |
| 20260507090406 | 18 | 153 | 1.6 | 3.2 | 0.00 | 0.00 | 0.00 | 44 | 1017.4 |
| 20260507085903 | 18 | 219 | 0.0 | 3.2 | 0.00 | 0.00 | 0.00 | 44 | 1017.6 |
| 20260507085400 | 19 | 213 | 1.6 | 3.2 | 0.00 | 0.00 | 0.00 | 44 | 1017.5 |
| 20260507084857 | 18 | 171 | 0.0 | 3.2 | 0.00 | 0.00 | 0.00 | 45 | 1017.7 |
| 20260507084354 | 18 | 176 | 0.0 | 3.2 | 0.00 | 0.00 | 0.00 | 45 | 1017.6 |
| 20260507083851 | 18 | 234 | 0.0 | 3.2 | 0.00 | 0.00 | 0.00 | 44 | 1017.7 |
| 20260507083347 | 19 | 204 | 1.6 | 4.8 | 0.00 | 0.00 | 0.00 | 43 | 1017.7 |
| 20260507082843 | 19 | 125 | 1.6 | 3.2 | 0.00 | 0.00 | 0.00 | 45 | 1017.8 |
| 20260507082339 | 20 | 66 | 0.0 | 1.6 | 0.00 | 0.00 | 0.00 | 45 | 1017.6 |
| 20260507081837 | 20 | 89 | 0.0 | 0.0 | 0.00 | 0.00 | 0.00 | 45 | 1017.6 |
| 20260507081332 | 20 | 309 | 0.0 | 0.0 | 0.00 | 0.00 | 0.00 | 42 | 1017.8 |
| 20260507080829 | 20 | 202 | 1.6 | 3.2 | 0.00 | 0.00 | 0.00 | 42 | 1017.9 |
| 20260507080325 | 20 | 212 | 0.0 | 1.6 | 0.00 | 0.00 | 0.00 | 42 | 1017.8 |
| 20260507075821 | 20 | 44 | 0.0 | 3.2 | 0.00 | 0.00 | 0.00 | 42 | 1017.8 |
| 20260507075317 | 20 | 269 | 0.0 | 1.6 | 0.00 | 0.00 | 0.00 | 39 | 1017.9 |
| 20260507074814 | 21 | 55 | 0.0 | 1.6 | 0.00 | 0.00 | 0.00 | 41 | 1017.6 |
| 20260507074312 | 20 | 107 | 0.0 | 1.6 | 0.00 | 0.00 | 0.00 | 42 | 1017.7 |
| 20260507073809 | 21 | 196 | 1.6 | 3.2 | 0.00 | 0.00 | 0.00 | 41 | 1017.7 |
| 20260507073305 | 22 | 119 | 0.0 | 3.2 | 0.00 | 0.00 | 0.00 | 40 | 1017.7 |
| 20260507072802 | 22 | 223 | 3.2 | 4.8 | 0.00 | 0.00 | 0.00 | 41 | 1017.6 |
| 20260507072300 | 22 | 173 | 0.0 | 4.8 | 0.00 | 0.00 | 0.00 | 42 | 1017.9 |
| 20260507071757 | 21 | 146 | 3.2 | 4.8 | 0.00 | 0.00 | 0.00 | 43 | 1017.8 |
| 20260507071253 | 21 | 168 | 3.2 | 3.2 | 0.00 | 0.00 | 0.00 | 44 | 1017.9 |
| 20260507070750 | 20 | 252 | 1.6 | 3.2 | 0.00 | 0.00 | 0.00 | 43 | 1017.7 |
| 20260507070247 | 20 | 269 | 0.0 | 3.2 | 0.00 | 0.00 | 0.00 | 42 | 1017.9 |
| 20260507065744 | 21 | 316 | 0.0 | 4.8 | 0.00 | 0.00 | 0.00 | 43 | 1017.8 |
| 20260507065241 | 20 | 311 | 0.0 | 3.2 | 0.00 | 0.00 | 0.00 | 44 | 1017.7 |
| 20260507064738 | 21 | 106 | 3.2 | 4.8 | 0.00 | 0.00 | 0.00 | 43 | 1017.8 |
| 20260507064237 | 21 | 60 | 0.0 | 3.2 | 0.00 | 0.00 | 0.00 | 43 | 1017.8 |
| 20260507063734 | 21 | 91 | 0.0 | 3.2 | 0.00 | 0.00 | 0.00 | 42 | 1017.6 |
| 20260507063230 | 21 | 126 | 0.0 | 3.2 | 0.00 | 0.00 | 0.00 | 41 | 1017.6 |
| 20260507062727 | 22 | 124 | 3.2 | 3.2 | 0.00 | 0.00 | 0.00 | 41 | 1017.7 |
| 20260507062225 | 22 | 109 | 0.0 | 3.2 | 0.00 | 0.00 | 0.00 | 42 | 1017.6 |
| 20260507061723 | 21 | 235 | 1.6 | 3.2 | 0.00 | 0.00 | 0.00 | 41 | 1017.7 |
| 20260507061221 | 22 | 173 | 0.0 | 1.6 | 0.00 | 0.00 | 0.00 | 42 | 1017.6 |
| 20260507060718 | 21 | 171 | 0.0 | 1.6 | 0.00 | 0.00 | 0.00 | 42 | 1017.5 |
| 20260507060214 | 21 | 224 | 0.0 | 1.6 | 0.00 | 0.00 | 0.00 | 39 | 1017.7 |
| 20260507055711 | 22 | 212 | 0.0 | 3.2 | 0.00 | 0.00 | 0.00 | 40 | 1017.7 |
| 20260507055207 | 22 | 65 | 0.0 | 3.2 | 0.00 | 0.00 | 0.00 | 38 | 1017.7 |
| 20260507054703 | 23 | 49 | 0.0 | 3.2 | 0.00 | 0.00 | 0.00 | 37 | 1017.5 |
| 20260507054159 | 23 | 287 | 0.0 | 6.4 | 0.00 | 0.00 | 0.00 | 37 | 1017.7 |
| 20260507053658 | 23 | 87 | 1.6 | 4.8 | 0.00 | 0.00 | 0.00 | 36 | 1017.6 |